TimeCDT,TemperatureF,Dew PointF,Humidity,Sea Level PressureIn,VisibilityMPH,Wind Direction,Wind SpeedMPH,Gust SpeedMPH,PrecipitationIn,Events,Conditions,WindDirDegrees,DateUTC
12:15 AM,39.2,19.4,45,29.83,10.0,SSW,11.5,-,N/A,,Clear,210,2012-10-08 05:15:00
12:35 AM,39.2,19.4,45,29.82,10.0,SSW,13.8,-,N/A,,Clear,210,2012-10-08 05:35:00
12:55 AM,41.0,17.6,39,29.82,10.0,SW,13.8,-,N/A,,Clear,220,2012-10-08 05:55:00
1:15 AM,39.2,17.6,42,29.82,10.0,SSW,12.7,-,N/A,,Clear,210,2012-10-08 06:15:00
1:35 AM,37.4,17.6,45,29.82,10.0,SSW,11.5,-,N/A,,Clear,210,2012-10-08 06:35:00
1:55 AM,41.0,17.6,39,29.81,10.0,SW,11.5,-,N/A,,Clear,220,2012-10-08 06:55:00
2:15 AM,44.6,17.6,34,29.81,10.0,SW,13.8,-,N/A,,Clear,230,2012-10-08 07:15:00
2:35 AM,44.6,17.6,34,29.81,10.0,SW,13.8,-,N/A,,Clear,230,2012-10-08 07:35:00
2:55 AM,44.6,17.6,34,29.80,10.0,SW,10.4,-,N/A,,Mostly Cloudy,220,2012-10-08 07:55:00
3:15 AM,44.6,19.4,37,29.79,10.0,SW,12.7,-,N/A,,Overcast,230,2012-10-08 08:15:00
3:35 AM,46.4,19.4,34,29.78,10.0,SW,12.7,-,N/A,,Overcast,230,2012-10-08 08:35:00
3:55 AM,46.4,19.4,34,29.77,10.0,SW,11.5,-,N/A,,Overcast,230,2012-10-08 08:55:00
4:15 AM,46.4,19.4,34,29.77,10.0,SW,10.4,-,N/A,,Overcast,220,2012-10-08 09:15:00
4:35 AM,46.4,19.4,34,29.76,10.0,SSW,11.5,-,N/A,,Overcast,210,2012-10-08 09:35:00
4:55 AM,46.4,19.4,34,29.76,10.0,SW,13.8,-,N/A,,Overcast,220,2012-10-08 09:55:00
5:15 AM,46.4,21.2,37,29.75,10.0,SW,12.7,-,N/A,,Overcast,220,2012-10-08 10:15:00
5:35 AM,46.4,21.2,37,29.75,10.0,SW,17.3,-,N/A,,Overcast,230,2012-10-08 10:35:00
5:55 AM,48.2,21.2,34,29.74,10.0,SW,13.8,-,N/A,,Overcast,230,2012-10-08 10:55:00
6:15 AM,48.2,23.0,37,29.74,10.0,SW,15.0,-,N/A,,Overcast,220,2012-10-08 11:15:00
6:35 AM,48.2,23.0,37,29.73,10.0,SW,12.7,-,N/A,,Overcast,220,2012-10-08 11:35:00
6:55 AM,48.2,23.0,37,29.73,10.0,SW,13.8,19.6,N/A,,Overcast,220,2012-10-08 11:55:00
7:15 AM,48.2,23.0,37,29.72,10.0,SW,13.8,-,N/A,,Overcast,220,2012-10-08 12:15:00
7:35 AM,48.2,23.0,37,29.72,10.0,SW,16.1,-,N/A,,Overcast,220,2012-10-08 12:35:00
7:55 AM,48.2,24.8,40,29.72,10.0,SW,15.0,-,N/A,,Mostly Cloudy,220,2012-10-08 12:55:00
8:15 AM,48.2,24.8,40,29.72,10.0,SW,15.0,-,N/A,,Mostly Cloudy,220,2012-10-08 13:15:00
8:35 AM,46.4,24.8,43,29.71,10.0,SSW,15.0,-,N/A,,Overcast,210,2012-10-08 13:35:00
8:55 AM,48.2,24.8,40,29.70,10.0,SW,19.6,23.0,N/A,,Overcast,220,2012-10-08 13:55:00
9:15 AM,48.2,24.8,40,29.69,10.0,SW,18.4,23.0,N/A,,Overcast,220,2012-10-08 14:15:00
9:35 AM,50.0,24.8,37,29.68,10.0,SW,18.4,24.2,N/A,,Mostly Cloudy,220,2012-10-08 14:35:00
9:55 AM,51.8,26.6,38,29.67,10.0,SW,17.3,25.3,N/A,,Mostly Cloudy,220,2012-10-08 14:55:00
10:15 AM,51.8,26.6,38,29.67,10.0,SW,17.3,-,N/A,,Overcast,220,2012-10-08 15:15:00
10:35 AM,51.8,26.6,38,29.67,10.0,SW,17.3,-,N/A,,Overcast,220,2012-10-08 15:35:00
10:55 AM,53.6,26.6,35,29.65,10.0,SW,18.4,21.9,N/A,,Mostly Cloudy,220,2012-10-08 15:55:00
11:15 AM,55.4,26.6,33,29.64,10.0,SW,20.7,25.3,N/A,,Partly Cloudy,220,2012-10-08 16:15:00
11:35 AM,57.2,28.4,33,29.63,10.0,SSW,18.4,26.5,N/A,,Mostly Cloudy,210,2012-10-08 16:35:00
11:55 AM,60.8,28.4,29,29.62,10.0,SW,18.4,26.5,N/A,,Mostly Cloudy,220,2012-10-08 16:55:00
12:15 PM,60.8,28.4,29,29.62,10.0,SW,23.0,-,N/A,,Mostly Cloudy,220,2012-10-08 17:15:00
12:35 PM,62.6,28.4,27,29.62,10.0,SW,24.2,31.1,N/A,,Scattered Clouds,230,2012-10-08 17:35:00
12:55 PM,64.4,28.4,26,29.61,10.0,WSW,21.9,32.2,N/A,,Partly Cloudy,240,2012-10-08 17:55:00
1:15 PM,64.4,30.2,28,29.60,10.0,WSW,24.2,32.2,N/A,,Partly Cloudy,240,2012-10-08 18:15:00
1:35 PM,66.2,30.2,26,29.60,10.0,WSW,27.6,36.8,N/A,,Clear,250,2012-10-08 18:35:00
1:55 PM,64.4,30.2,28,29.60,10.0,West,28.8,35.7,N/A,,Clear,260,2012-10-08 18:55:00
2:15 PM,66.2,33.8,30,29.59,10.0,WSW,28.8,34.5,N/A,,Clear,250,2012-10-08 19:15:00
2:35 PM,68.0,33.8,28,29.60,10.0,West,25.3,34.5,N/A,,Clear,260,2012-10-08 19:35:00
2:55 PM,66.2,35.6,32,29.60,10.0,West,29.9,38.0,N/A,,Scattered Clouds,270,2012-10-08 19:55:00
3:15 PM,66.2,37.4,35,29.61,10.0,West,26.5,33.4,N/A,,Partly Cloudy,270,2012-10-08 20:15:00
3:35 PM,66.2,37.4,35,29.61,10.0,WNW,23.0,34.5,N/A,,Partly Cloudy,290,2012-10-08 20:35:00
3:55 PM,66.2,37.4,35,29.62,10.0,West,28.8,36.8,N/A,,Mostly Cloudy,280,2012-10-08 20:55:00
4:15 PM,64.4,37.4,37,29.63,10.0,WNW,25.3,-,N/A,,Mostly Cloudy,300,2012-10-08 21:15:00
4:35 PM,64.4,37.4,37,29.63,10.0,WNW,23.0,29.9,N/A,,Mostly Cloudy,290,2012-10-08 21:35:00
4:55 PM,64.4,37.4,37,29.64,10.0,WNW,19.6,28.8,N/A,,Overcast,290,2012-10-08 21:55:00
5:15 PM,62.6,37.4,39,29.65,10.0,WNW,17.3,28.8,N/A,,Overcast,290,2012-10-08 22:15:00
5:35 PM,62.6,37.4,39,29.66,10.0,WNW,21.9,28.8,N/A,,Overcast,300,2012-10-08 22:35:00
5:55 PM,62.6,37.4,39,29.67,10.0,WNW,19.6,-,N/A,,Overcast,300,2012-10-08 22:55:00
6:15 PM,60.8,37.4,42,29.68,10.0,NW,21.9,-,N/A,,Overcast,320,2012-10-08 23:15:00
6:35 PM,60.8,37.4,42,29.69,10.0,NW,16.1,-,N/A,,Overcast,320,2012-10-08 23:35:00
6:55 PM,59.0,37.4,45,29.71,10.0,NNW,15.0,-,N/A,,Overcast,330,2012-10-08 23:55:00
7:15 PM,57.2,37.4,48,29.72,10.0,NW,17.3,-,N/A,,Mostly Cloudy,320,2012-10-09 00:15:00
7:35 PM,57.2,35.6,44,29.73,10.0,NW,16.1,-,N/A,,Partly Cloudy,320,2012-10-09 00:35:00
7:55 PM,55.4,35.6,47,29.73,10.0,NNW,11.5,-,N/A,,Partly Cloudy,330,2012-10-09 00:55:00
8:15 PM,55.4,35.6,47,29.74,10.0,NNW,9.2,-,N/A,,Clear,330,2012-10-09 01:15:00
8:35 PM,53.6,35.6,51,29.75,10.0,NW,8.1,-,N/A,,Scattered Clouds,320,2012-10-09 01:35:00
8:55 PM,51.8,35.6,54,29.75,10.0,NW,5.8,-,N/A,,Partly Cloudy,310,2012-10-09 01:55:00
9:15 PM,51.8,35.6,54,29.75,10.0,West,4.6,-,N/A,,Partly Cloudy,280,2012-10-09 02:15:00
9:35 PM,50.0,35.6,58,29.75,10.0,SW,4.6,-,N/A,,Mostly Cloudy,230,2012-10-09 02:35:00
9:55 PM,51.8,35.6,54,29.75,10.0,SW,5.8,-,N/A,,Mostly Cloudy,230,2012-10-09 02:55:00
10:15 PM,51.8,35.6,54,29.76,10.0,SW,4.6,-,N/A,,Mostly Cloudy,230,2012-10-09 03:15:00
10:55 PM,51.8,35.6,54,29.76,10.0,WSW,8.1,-,N/A,,Mostly Cloudy,240,2012-10-09 03:55:00
11:35 PM,51.8,35.6,54,29.76,10.0,WSW,8.1,-,N/A,,Overcast,250,2012-10-09 04:35:00
11:55 PM,51.8,35.6,54,29.76,10.0,West,9.2,-,N/A,,Overcast,270,2012-10-09 04:55:00